Year,Month,Day,Hour,Minute,Value (Times are PST for temperature in C)
2018,07,22,00,00,15.40
2018,07,22,00,01,15.40
2018,07,22,00,02,15.40
2018,07,22,00,03,15.30
2018,07,22,00,04,15.30
2018,07,22,00,05,15.30
2018,07,22,00,06,15.30
2018,07,22,00,07,15.20
2018,07,22,00,08,15.20
2018,07,22,00,09,15.20
2018,07,22,00,10,15.20
2018,07,22,00,11,15.20
2018,07,22,00,12,15.20
2018,07,22,00,13,15.10
2018,07,22,00,14,15.10
2018,07,22,00,15,15.10
2018,07,22,00,16,15.10
2018,07,22,00,17,15.10
2018,07,22,00,18,15.10
2018,07,22,00,19,15.00
2018,07,22,00,20,15.10
2018,07,22,00,21,15.10
2018,07,22,00,22,15.10
2018,07,22,00,23,15.10
2018,07,22,00,24,15.10
2018,07,22,00,25,15.10
2018,07,22,00,26,15.10
2018,07,22,00,27,15.00
2018,07,22,00,28,15.00
2018,07,22,00,29,15.00
2018,07,22,00,30,15.00
2018,07,22,00,31,14.90
2018,07,22,00,32,14.90
2018,07,22,00,33,14.90
2018,07,22,00,34,14.90
2018,07,22,00,35,14.90
2018,07,22,00,36,14.90
2018,07,22,00,37,14.90
2018,07,22,00,38,14.90
2018,07,22,00,39,14.80
2018,07,22,00,40,14.80
2018,07,22,00,41,14.80
2018,07,22,00,42,14.80
2018,07,22,00,43,14.80
2018,07,22,00,44,14.80
2018,07,22,00,45,14.80
2018,07,22,00,46,14.80
2018,07,22,00,47,14.80
2018,07,22,00,48,14.80
2018,07,22,00,49,14.80
2018,07,22,00,50,14.80
2018,07,22,00,51,14.80
2018,07,22,00,52,14.80
2018,07,22,00,53,14.80
2018,07,22,00,54,14.80
2018,07,22,00,55,14.80
2018,07,22,00,56,14.80
2018,07,22,00,57,14.80
2018,07,22,00,58,14.70
2018,07,22,00,59,14.70
2018,07,22,01,00,14.70
2018,07,22,01,01,14.70
2018,07,22,01,02,14.70
2018,07,22,01,03,14.70
2018,07,22,01,04,14.60
2018,07,22,01,05,14.60
2018,07,22,01,06,14.60
2018,07,22,01,07,14.60
2018,07,22,01,08,14.60
2018,07,22,01,09,14.60
2018,07,22,01,10,14.50
2018,07,22,01,11,14.50
2018,07,22,01,12,14.40
2018,07,22,01,13,14.40
2018,07,22,01,14,14.40
2018,07,22,01,15,14.40
2018,07,22,01,16,14.40
2018,07,22,01,17,14.40
2018,07,22,01,18,14.40
2018,07,22,01,19,14.40
2018,07,22,01,20,14.40
2018,07,22,01,21,14.40
2018,07,22,01,22,14.40
2018,07,22,01,23,14.40
2018,07,22,01,24,14.30
2018,07,22,01,25,14.30
2018,07,22,01,26,14.30
2018,07,22,01,27,14.30
2018,07,22,01,28,14.30
2018,07,22,01,29,14.20
2018,07,22,01,30,14.20
2018,07,22,01,31,14.20
2018,07,22,01,32,14.10
2018,07,22,01,33,14.10
2018,07,22,01,34,14.10
2018,07,22,01,35,14.00
2018,07,22,01,36,14.00
2018,07,22,01,37,14.00
2018,07,22,01,38,14.00
2018,07,22,01,39,14.00
2018,07,22,01,40,13.90
2018,07,22,01,41,13.90
2018,07,22,01,42,13.90
2018,07,22,01,43,13.90
2018,07,22,01,44,13.90
2018,07,22,01,45,13.80
2018,07,22,01,46,13.80
2018,07,22,01,47,13.80
2018,07,22,01,48,13.80
2018,07,22,01,49,13.80
2018,07,22,01,50,13.80
2018,07,22,01,51,13.80
2018,07,22,01,52,13.80
2018,07,22,01,53,13.80
2018,07,22,01,54,13.80
2018,07,22,01,55,13.70
2018,07,22,01,56,13.70
2018,07,22,01,57,13.70
2018,07,22,01,58,13.70
2018,07,22,01,59,13.70
2018,07,22,02,00,13.70
2018,07,22,02,01,13.70
2018,07,22,02,02,13.70
2018,07,22,02,03,13.60
2018,07,22,02,04,13.60
2018,07,22,02,05,13.60
2018,07,22,02,06,13.60
2018,07,22,02,07,13.60
2018,07,22,02,08,13.60
2018,07,22,02,09,13.60
2018,07,22,02,10,13.60
2018,07,22,02,11,13.60
2018,07,22,02,12,13.60
2018,07,22,02,13,13.60
2018,07,22,02,14,13.70
2018,07,22,02,15,13.70
2018,07,22,02,16,13.70
2018,07,22,02,17,13.70
2018,07,22,02,18,13.70
2018,07,22,02,19,13.70
2018,07,22,02,20,13.70
2018,07,22,02,21,13.60
2018,07,22,02,22,13.60
2018,07,22,02,23,13.60
2018,07,22,02,24,13.60
2018,07,22,02,25,13.60
2018,07,22,02,26,13.50
2018,07,22,02,27,13.50
2018,07,22,02,28,13.50
2018,07,22,02,29,13.50
2018,07,22,02,30,13.50
2018,07,22,02,31,13.50
2018,07,22,02,32,13.40
2018,07,22,02,33,13.40
2018,07,22,02,34,13.40
2018,07,22,02,35,13.40
2018,07,22,02,36,13.40
2018,07,22,02,37,13.40
2018,07,22,02,38,13.40
2018,07,22,02,39,13.40
2018,07,22,02,40,13.40
2018,07,22,02,41,13.30
2018,07,22,02,42,13.30
2018,07,22,02,43,13.30
2018,07,22,02,44,13.30
2018,07,22,02,45,13.30
2018,07,22,02,46,13.30
2018,07,22,02,47,13.30
2018,07,22,02,48,13.30
2018,07,22,02,49,13.30
2018,07,22,02,50,13.30
2018,07,22,02,51,13.30
2018,07,22,02,52,13.30
2018,07,22,02,53,13.30
2018,07,22,02,54,13.30
2018,07,22,02,55,13.30
2018,07,22,02,56,13.30
2018,07,22,02,57,13.30
2018,07,22,02,58,13.30
2018,07,22,02,59,13.30
2018,07,22,03,00,13.30
2018,07,22,03,01,13.30
2018,07,22,03,02,13.30
2018,07,22,03,03,13.30
2018,07,22,03,04,13.30
2018,07,22,03,05,13.30
2018,07,22,03,06,13.30
2018,07,22,03,07,13.30
2018,07,22,03,08,13.30
2018,07,22,03,09,13.20
2018,07,22,03,10,13.20
2018,07,22,03,11,13.20
2018,07,22,03,12,13.20
2018,07,22,03,13,13.20
2018,07,22,03,14,13.30
2018,07,22,03,15,13.30
2018,07,22,03,16,13.30
2018,07,22,03,17,13.30
2018,07,22,03,18,13.30
2018,07,22,03,19,13.30
2018,07,22,03,20,13.30
2018,07,22,03,21,13.30
2018,07,22,03,22,13.30
2018,07,22,03,23,13.30
2018,07,22,03,24,13.30
2018,07,22,03,25,13.30
2018,07,22,03,26,13.40
2018,07,22,03,27,13.40
2018,07,22,03,28,13.40
2018,07,22,03,29,13.40
2018,07,22,03,30,13.40
2018,07,22,03,31,13.50
2018,07,22,03,32,13.50
2018,07,22,03,33,13.50
2018,07,22,03,34,13.50
2018,07,22,03,35,13.50
2018,07,22,03,36,13.50
2018,07,22,03,37,13.50
2018,07,22,03,38,13.40
2018,07,22,03,39,13.40
2018,07,22,03,40,13.40
2018,07,22,03,41,13.40
2018,07,22,03,42,13.30
2018,07,22,03,43,13.30
2018,07,22,03,44,13.30
2018,07,22,03,45,13.20
2018,07,22,03,46,13.20
2018,07,22,03,47,13.20
2018,07,22,03,48,13.20
2018,07,22,03,49,13.20
2018,07,22,03,50,13.10
2018,07,22,03,51,13.10
2018,07,22,03,52,13.10
2018,07,22,03,53,13.00
2018,07,22,03,54,13.00
2018,07,22,03,55,13.00
2018,07,22,03,56,13.00
2018,07,22,03,57,13.00
2018,07,22,03,58,12.90
2018,07,22,03,59,12.90
2018,07,22,04,00,13.00
2018,07,22,04,01,13.00
2018,07,22,04,02,13.00
2018,07,22,04,03,13.00
2018,07,22,04,04,13.00
2018,07,22,04,05,13.00
2018,07,22,04,06,13.00
2018,07,22,04,07,13.00
2018,07,22,04,08,13.00
2018,07,22,04,09,13.10
2018,07,22,04,10,13.10
2018,07,22,04,11,13.10
2018,07,22,04,12,13.10
2018,07,22,04,13,13.20
2018,07,22,04,14,13.20
2018,07,22,04,15,13.20
2018,07,22,04,16,13.20
2018,07,22,04,17,13.20
2018,07,22,04,18,13.20
2018,07,22,04,19,13.20
2018,07,22,04,20,13.20
2018,07,22,04,21,13.20
2018,07,22,04,22,13.20
2018,07,22,04,23,13.20
2018,07,22,04,24,13.20
2018,07,22,04,25,13.20
2018,07,22,04,26,13.20
2018,07,22,04,27,13.20
2018,07,22,04,28,13.20
2018,07,22,04,29,13.20
2018,07,22,04,30,13.20
2018,07,22,04,31,13.20
2018,07,22,04,32,13.20
2018,07,22,04,33,13.20
2018,07,22,04,34,13.20
2018,07,22,04,35,13.20
2018,07,22,04,36,13.20
2018,07,22,04,37,13.20
2018,07,22,04,38,13.20
2018,07,22,04,39,13.20
2018,07,22,04,40,13.20
2018,07,22,04,41,13.20
2018,07,22,04,42,13.20
2018,07,22,04,43,13.20
2018,07,22,04,44,13.20
2018,07,22,04,45,13.20
2018,07,22,04,46,13.20
2018,07,22,04,47,13.20
2018,07,22,04,48,13.20
2018,07,22,04,49,13.20
2018,07,22,04,50,13.20
2018,07,22,04,51,13.10
2018,07,22,04,52,13.10
2018,07,22,04,53,13.10
2018,07,22,04,54,13.10
2018,07,22,04,55,13.10
2018,07,22,04,56,13.00
2018,07,22,04,57,13.00
2018,07,22,04,58,13.00
2018,07,22,04,59,13.00
2018,07,22,05,00,12.90
2018,07,22,05,01,12.90
2018,07,22,05,02,12.90
2018,07,22,05,03,12.90
2018,07,22,05,04,12.90
2018,07,22,05,05,12.90
2018,07,22,05,06,12.90
2018,07,22,05,07,12.80
2018,07,22,05,08,12.80
2018,07,22,05,09,12.80
2018,07,22,05,10,12.80
2018,07,22,05,11,12.80
2018,07,22,05,12,12.80
2018,07,22,05,13,12.80
2018,07,22,05,14,12.70
2018,07,22,05,15,12.70
2018,07,22,05,16,12.70
2018,07,22,05,17,12.70
2018,07,22,05,18,12.70
2018,07,22,05,19,12.60
2018,07,22,05,20,12.60
2018,07,22,05,21,12.50
2018,07,22,05,22,12.50
2018,07,22,05,23,12.50
2018,07,22,05,24,12.40
2018,07,22,05,25,12.40
2018,07,22,05,26,12.40
2018,07,22,05,27,12.40
2018,07,22,05,28,12.40
2018,07,22,05,29,12.30
2018,07,22,05,30,12.30
2018,07,22,05,31,12.30
2018,07,22,05,32,12.30
2018,07,22,05,33,12.30
2018,07,22,05,34,12.30
2018,07,22,05,35,12.20
2018,07,22,05,36,12.20
2018,07,22,05,37,12.20
2018,07,22,05,38,12.20
2018,07,22,05,39,12.20
2018,07,22,05,40,12.20
2018,07,22,05,41,12.20
2018,07,22,05,42,12.20
2018,07,22,05,43,12.20
2018,07,22,05,44,12.20
2018,07,22,05,45,12.20
2018,07,22,05,46,12.30
2018,07,22,05,47,12.20
2018,07,22,05,48,12.30
2018,07,22,05,49,12.30
2018,07,22,05,50,12.30
2018,07,22,05,51,12.30
2018,07,22,05,52,12.30
2018,07,22,05,53,12.30
2018,07,22,05,54,12.30
2018,07,22,05,55,12.30
2018,07,22,05,56,12.30
2018,07,22,05,57,12.30
2018,07,22,05,58,12.30
2018,07,22,05,59,12.30
2018,07,22,06,00,12.30
2018,07,22,06,01,12.30
2018,07,22,06,02,12.30
2018,07,22,06,03,12.30
2018,07,22,06,04,12.30
2018,07,22,06,05,12.30
2018,07,22,06,06,12.30
2018,07,22,06,07,12.30
2018,07,22,06,08,12.30
2018,07,22,06,09,12.30
2018,07,22,06,10,12.30
2018,07,22,06,11,12.30
2018,07,22,06,12,12.30
2018,07,22,06,13,12.30
2018,07,22,06,14,12.30
2018,07,22,06,15,12.30
2018,07,22,06,16,12.30
2018,07,22,06,17,12.30
2018,07,22,06,18,12.30
2018,07,22,06,19,12.30
2018,07,22,06,20,12.30
2018,07,22,06,21,12.30
2018,07,22,06,22,12.40
2018,07,22,06,23,12.40
2018,07,22,06,24,12.40
2018,07,22,06,25,12.40
2018,07,22,06,26,12.40
2018,07,22,06,27,12.40
2018,07,22,06,28,12.40
2018,07,22,06,29,12.40
2018,07,22,06,30,12.40
2018,07,22,06,31,12.40
2018,07,22,06,32,12.40
2018,07,22,06,33,12.40
2018,07,22,06,34,12.40
2018,07,22,06,35,12.40
2018,07,22,06,36,12.50
2018,07,22,06,37,12.50
2018,07,22,06,38,12.50
2018,07,22,06,39,12.60
2018,07,22,06,40,12.60
2018,07,22,06,41,12.70
2018,07,22,06,42,12.70
2018,07,22,06,43,12.70
2018,07,22,06,44,12.80
2018,07,22,06,45,12.80
2018,07,22,06,46,12.90
2018,07,22,06,47,12.90
2018,07,22,06,48,13.00
2018,07,22,06,49,13.00
2018,07,22,06,50,13.10
2018,07,22,06,51,13.10
2018,07,22,06,52,13.10
2018,07,22,06,53,13.20
2018,07,22,06,54,13.20
2018,07,22,06,55,13.30
2018,07,22,06,56,13.30
2018,07,22,06,57,13.30
2018,07,22,06,58,13.30
2018,07,22,06,59,13.30
2018,07,22,07,00,13.40
2018,07,22,07,01,13.40
2018,07,22,07,02,13.50
2018,07,22,07,03,13.50
2018,07,22,07,04,13.60
2018,07,22,07,05,13.70
2018,07,22,07,06,13.70
2018,07,22,07,07,13.80
2018,07,22,07,08,13.90
2018,07,22,07,09,14.00
2018,07,22,07,10,14.00
2018,07,22,07,11,14.10
2018,07,22,07,12,14.20
2018,07,22,07,13,14.30
2018,07,22,07,14,14.40
2018,07,22,07,15,14.40
2018,07,22,07,16,14.50
2018,07,22,07,17,14.60
2018,07,22,07,18,14.70
2018,07,22,07,19,14.80
2018,07,22,07,20,14.80
2018,07,22,07,21,15.00
2018,07,22,07,22,15.00
2018,07,22,07,23,15.10
2018,07,22,07,24,15.20
2018,07,22,07,25,15.30
2018,07,22,07,26,15.40
2018,07,22,07,27,15.50
2018,07,22,07,28,15.60
2018,07,22,07,29,15.80
2018,07,22,07,30,15.90
2018,07,22,07,31,16.00
2018,07,22,07,32,16.10
2018,07,22,07,33,16.20
2018,07,22,07,34,16.20
2018,07,22,07,35,16.30
2018,07,22,07,36,16.40
2018,07,22,07,37,16.40
2018,07,22,07,38,16.50
2018,07,22,07,39,16.60
2018,07,22,07,40,16.70
2018,07,22,07,41,16.90
2018,07,22,07,42,17.00
2018,07,22,07,43,17.10
2018,07,22,07,44,17.20
2018,07,22,07,45,17.20
2018,07,22,07,46,17.30
2018,07,22,07,47,17.40
2018,07,22,07,48,17.40
2018,07,22,07,49,17.50
2018,07,22,07,50,17.50
2018,07,22,07,51,17.50
2018,07,22,07,52,17.50
2018,07,22,07,53,17.60
2018,07,22,07,54,17.70
2018,07,22,07,55,17.70
2018,07,22,07,56,17.80
2018,07,22,07,57,17.90
2018,07,22,07,58,18.00
2018,07,22,07,59,18.10
2018,07,22,08,00,18.10
2018,07,22,08,01,18.20
2018,07,22,08,02,18.30
2018,07,22,08,03,18.40
2018,07,22,08,04,18.50
2018,07,22,08,05,18.60
2018,07,22,08,06,18.70
2018,07,22,08,07,18.80
2018,07,22,08,08,18.80
2018,07,22,08,09,18.90
2018,07,22,08,10,18.90
2018,07,22,08,11,19.00
2018,07,22,08,12,19.00
2018,07,22,08,13,19.10
2018,07,22,08,14,19.20
2018,07,22,08,15,19.30
2018,07,22,08,16,19.30
2018,07,22,08,17,19.40
2018,07,22,08,18,19.40
2018,07,22,08,19,19.40
2018,07,22,08,20,19.40
2018,07,22,08,21,19.40
2018,07,22,08,22,19.40
2018,07,22,08,23,19.40
2018,07,22,08,24,19.40
2018,07,22,08,25,19.40
2018,07,22,08,26,19.40
2018,07,22,08,27,19.40
2018,07,22,08,28,19.40
2018,07,22,08,29,19.30
2018,07,22,08,30,19.30
2018,07,22,08,31,19.30
2018,07,22,08,32,19.30
2018,07,22,08,33,19.30
2018,07,22,08,34,19.30
2018,07,22,08,35,19.30
2018,07,22,08,36,19.30
2018,07,22,08,37,19.30
2018,07,22,08,38,19.30
2018,07,22,08,39,19.30
2018,07,22,08,40,19.30
2018,07,22,08,41,19.30
2018,07,22,08,42,19.30
2018,07,22,08,43,19.30
2018,07,22,08,44,19.30
2018,07,22,08,45,19.30
2018,07,22,08,46,19.30
2018,07,22,08,47,19.30
2018,07,22,08,48,19.30
2018,07,22,08,49,19.30
2018,07,22,08,50,19.40
2018,07,22,08,51,19.40
2018,07,22,08,52,19.50
2018,07,22,08,53,19.50
2018,07,22,08,54,19.50
2018,07,22,08,55,19.50
2018,07,22,08,56,19.40
2018,07,22,08,57,19.40
2018,07,22,08,58,19.40
2018,07,22,08,59,19.40
2018,07,22,09,00,19.40
2018,07,22,09,01,19.40
2018,07,22,09,02,19.40
2018,07,22,09,03,19.40
2018,07,22,09,04,19.50
2018,07,22,09,05,19.50
2018,07,22,09,06,19.60
2018,07,22,09,07,19.60
2018,07,22,09,08,19.70
2018,07,22,09,09,19.80
2018,07,22,09,10,19.80
2018,07,22,09,11,19.90
2018,07,22,09,12,19.90
2018,07,22,09,13,19.90
2018,07,22,09,14,19.90
2018,07,22,09,15,19.90
2018,07,22,09,16,19.90
2018,07,22,09,17,19.90
2018,07,22,09,18,19.90
2018,07,22,09,19,19.90
2018,07,22,09,20,19.90
2018,07,22,09,21,19.80
2018,07,22,09,22,19.80
2018,07,22,09,23,19.80
2018,07,22,09,24,19.70
2018,07,22,09,25,19.70
2018,07,22,09,26,19.70
2018,07,22,09,27,19.60
2018,07,22,09,28,19.60
2018,07,22,09,29,19.60
2018,07,22,09,30,19.60
2018,07,22,09,31,19.60
2018,07,22,09,32,19.60
2018,07,22,09,33,19.60
2018,07,22,09,34,19.60
2018,07,22,09,35,19.60
2018,07,22,09,36,19.60
2018,07,22,09,37,19.60
2018,07,22,09,38,19.70
2018,07,22,09,39,19.70
2018,07,22,09,40,19.80
2018,07,22,09,41,19.80
2018,07,22,09,42,19.80
2018,07,22,09,43,19.90
2018,07,22,09,44,19.80
2018,07,22,09,45,19.80
2018,07,22,09,46,19.80
2018,07,22,09,47,19.80
2018,07,22,09,48,19.80
2018,07,22,09,49,19.80
2018,07,22,09,50,19.70
2018,07,22,09,51,19.80
2018,07,22,09,52,19.80
2018,07,22,09,53,19.80
2018,07,22,09,54,19.80
2018,07,22,09,55,19.80
2018,07,22,09,56,19.80
2018,07,22,09,57,19.80
2018,07,22,09,58,19.80
2018,07,22,09,59,19.80
2018,07,22,10,00,19.80
2018,07,22,10,01,19.90
2018,07,22,10,02,20.00
2018,07,22,10,03,20.00
2018,07,22,10,04,20.10
2018,07,22,10,05,20.20
2018,07,22,10,06,20.30
2018,07,22,10,07,20.30
2018,07,22,10,08,20.40
2018,07,22,10,09,20.40
2018,07,22,10,10,20.40
2018,07,22,10,11,20.40
2018,07,22,10,12,20.40
2018,07,22,10,13,20.40
2018,07,22,10,14,20.50
2018,07,22,10,15,20.50
2018,07,22,10,16,20.50
2018,07,22,10,17,20.50
2018,07,22,10,18,20.50
2018,07,22,10,19,20.50
2018,07,22,10,20,20.50
2018,07,22,10,21,20.60
2018,07,22,10,22,20.60
2018,07,22,10,23,20.60
2018,07,22,10,24,20.70
2018,07,22,10,25,20.70
2018,07,22,10,26,20.80
2018,07,22,10,27,20.80
2018,07,22,10,28,20.90
2018,07,22,10,29,21.00
2018,07,22,10,30,21.00
2018,07,22,10,31,21.10
2018,07,22,10,32,21.00
2018,07,22,10,33,20.90
2018,07,22,10,34,20.90
2018,07,22,10,35,20.80
2018,07,22,10,36,20.80
2018,07,22,10,37,20.80
2018,07,22,10,38,20.80
2018,07,22,10,39,20.80
2018,07,22,10,40,20.80
2018,07,22,10,41,20.80
2018,07,22,10,42,20.80
2018,07,22,10,43,20.90
2018,07,22,10,44,20.90
2018,07,22,10,45,20.90
2018,07,22,10,46,20.90
2018,07,22,10,47,20.90
2018,07,22,10,48,20.90
2018,07,22,10,49,20.90
2018,07,22,10,50,20.90
2018,07,22,10,51,20.90
2018,07,22,10,52,20.90
2018,07,22,10,53,21.00
2018,07,22,10,54,21.00
2018,07,22,10,55,21.10
2018,07,22,10,56,21.10
2018,07,22,10,57,21.10
2018,07,22,10,58,21.10
2018,07,22,10,59,21.10
2018,07,22,11,00,21.10
2018,07,22,11,01,21.10
2018,07,22,11,02,21.20
2018,07,22,11,03,21.10
2018,07,22,11,04,21.10
2018,07,22,11,05,21.10
2018,07,22,11,06,21.10
2018,07,22,11,07,21.10
2018,07,22,11,08,21.10
2018,07,22,11,09,21.20
2018,07,22,11,10,21.20
2018,07,22,11,11,21.30
2018,07,22,11,12,21.40
2018,07,22,11,13,21.40
2018,07,22,11,14,21.40
2018,07,22,11,15,21.40
2018,07,22,11,16,21.40
2018,07,22,11,17,21.50
2018,07,22,11,18,21.50
2018,07,22,11,19,21.50
2018,07,22,11,20,21.40
2018,07,22,11,21,21.40
2018,07,22,11,22,21.40
2018,07,22,11,23,21.40
2018,07,22,11,24,21.50
2018,07,22,11,25,21.50
2018,07,22,11,26,21.50
2018,07,22,11,27,21.60
2018,07,22,11,28,21.70
2018,07,22,11,29,21.80
2018,07,22,11,30,21.80
2018,07,22,11,31,21.80
2018,07,22,11,32,21.80
2018,07,22,11,33,21.80
2018,07,22,11,34,21.80
2018,07,22,11,35,21.80
2018,07,22,11,36,21.80
2018,07,22,11,37,21.80
2018,07,22,11,38,21.90
2018,07,22,11,39,21.90
2018,07,22,11,40,21.90
2018,07,22,11,41,21.90
2018,07,22,11,42,21.90
2018,07,22,11,43,21.90
2018,07,22,11,44,21.90
2018,07,22,11,45,21.90
2018,07,22,11,46,21.80
2018,07,22,11,47,21.80
2018,07,22,11,48,21.80
2018,07,22,11,49,21.80
2018,07,22,11,50,21.80
2018,07,22,11,51,21.80
2018,07,22,11,52,21.80
2018,07,22,11,53,21.80
2018,07,22,11,54,21.90
2018,07,22,11,55,22.00
2018,07,22,11,56,22.00
2018,07,22,11,57,22.10
2018,07,22,11,58,22.10
2018,07,22,11,59,22.10
2018,07,22,12,00,22.20
2018,07,22,12,01,22.30
2018,07,22,12,02,22.40
2018,07,22,12,03,22.50
2018,07,22,12,04,22.70
2018,07,22,12,05,22.80
2018,07,22,12,06,22.80
2018,07,22,12,07,22.90
2018,07,22,12,08,23.00
2018,07,22,12,09,23.00
2018,07,22,12,10,23.00
2018,07,22,12,11,22.90
2018,07,22,12,12,22.90
2018,07,22,12,13,22.90
2018,07,22,12,14,22.90
2018,07,22,12,15,22.90
2018,07,22,12,16,22.90
2018,07,22,12,17,22.90
2018,07,22,12,18,23.00
2018,07,22,12,19,22.90
2018,07,22,12,20,22.90
2018,07,22,12,21,22.90
2018,07,22,12,22,22.90
2018,07,22,12,23,22.90
2018,07,22,12,24,22.90
2018,07,22,12,25,22.80
2018,07,22,12,26,22.80
2018,07,22,12,27,22.90
2018,07,22,12,28,23.00
2018,07,22,12,29,23.00
2018,07,22,12,30,23.10
2018,07,22,12,31,23.10
2018,07,22,12,32,23.00
2018,07,22,12,33,23.00
2018,07,22,12,34,23.00
2018,07,22,12,35,23.00
2018,07,22,12,36,23.00
2018,07,22,12,37,23.10
2018,07,22,12,38,23.10
2018,07,22,12,39,23.10
2018,07,22,12,40,23.10
2018,07,22,12,41,23.20
2018,07,22,12,42,23.20
2018,07,22,12,43,23.30
2018,07,22,12,44,23.30
2018,07,22,12,45,23.40
2018,07,22,12,46,23.50
2018,07,22,12,47,23.60
2018,07,22,12,48,23.60
2018,07,22,12,49,23.60
2018,07,22,12,50,23.60
2018,07,22,12,51,23.50
2018,07,22,12,52,23.50
2018,07,22,12,53,23.50
2018,07,22,12,54,23.50
2018,07,22,12,55,23.50
2018,07,22,12,56,23.50
2018,07,22,12,57,23.40
2018,07,22,12,58,23.40
2018,07,22,12,59,23.30
2018,07,22,13,00,23.30
2018,07,22,13,01,23.30
2018,07,22,13,02,23.30
2018,07,22,13,03,23.40
2018,07,22,13,04,23.40
2018,07,22,13,05,23.40
2018,07,22,13,06,23.40
2018,07,22,13,07,23.40
2018,07,22,13,08,23.50
2018,07,22,13,09,23.50
2018,07,22,13,10,23.60
2018,07,22,13,11,23.60
2018,07,22,13,12,23.60
2018,07,22,13,13,23.70
2018,07,22,13,14,23.70
2018,07,22,13,15,23.80
2018,07,22,13,16,23.90
2018,07,22,13,17,24.00
2018,07,22,13,18,24.10
2018,07,22,13,19,24.00
2018,07,22,13,20,24.00
2018,07,22,13,21,23.90
2018,07,22,13,22,23.90
2018,07,22,13,23,23.80
2018,07,22,13,24,23.80
2018,07,22,13,25,23.80
2018,07,22,13,26,23.80
2018,07,22,13,27,23.80
2018,07,22,13,28,23.80
2018,07,22,13,29,23.80
2018,07,22,13,30,23.80
2018,07,22,13,31,23.80
2018,07,22,13,32,23.80
2018,07,22,13,33,23.90
2018,07,22,13,34,24.00
2018,07,22,13,35,24.10
2018,07,22,13,36,24.20
2018,07,22,13,37,24.30
2018,07,22,13,38,24.40
2018,07,22,13,39,24.40
2018,07,22,13,40,24.40
2018,07,22,13,41,24.40
2018,07,22,13,42,24.50
2018,07,22,13,43,24.60
2018,07,22,13,44,24.70
2018,07,22,13,45,24.70
2018,07,22,13,46,24.80
2018,07,22,13,47,24.80
2018,07,22,13,48,24.80
2018,07,22,13,49,24.80
2018,07,22,13,50,24.80
2018,07,22,13,51,24.90
2018,07,22,13,52,24.90
2018,07,22,13,53,25.00
2018,07,22,13,54,25.00
2018,07,22,13,55,25.10
2018,07,22,13,56,25.10
2018,07,22,13,57,25.10
2018,07,22,13,58,25.20
2018,07,22,13,59,25.20
2018,07,22,14,00,25.10
2018,07,22,14,01,25.10
2018,07,22,14,02,25.20
2018,07,22,14,03,25.20
2018,07,22,14,04,25.30
2018,07,22,14,05,25.30
2018,07,22,14,06,25.40
2018,07,22,14,07,25.50
2018,07,22,14,08,25.50
2018,07,22,14,09,25.50
2018,07,22,14,10,25.60
2018,07,22,14,11,25.60
2018,07,22,14,12,25.60
2018,07,22,14,13,25.70
2018,07,22,14,14,25.70
2018,07,22,14,15,25.80
2018,07,22,14,16,25.80
2018,07,22,14,17,25.90
2018,07,22,14,18,25.90
2018,07,22,14,19,25.90
2018,07,22,14,20,25.90
2018,07,22,14,21,25.90
2018,07,22,14,22,25.90
2018,07,22,14,23,25.90
2018,07,22,14,24,26.00
2018,07,22,14,25,26.00
2018,07,22,14,26,26.10
2018,07,22,14,27,26.10
2018,07,22,14,28,26.20
2018,07,22,14,29,26.20
2018,07,22,14,30,26.20
2018,07,22,14,31,26.10
2018,07,22,14,32,26.00
2018,07,22,14,33,25.90
2018,07,22,14,34,25.80
2018,07,22,14,35,25.80
2018,07,22,14,36,25.80
2018,07,22,14,37,25.90
2018,07,22,14,38,26.00
2018,07,22,14,39,26.00
2018,07,22,14,40,26.10
2018,07,22,14,41,26.20
2018,07,22,14,42,26.20
2018,07,22,14,43,26.30
2018,07,22,14,44,26.40
2018,07,22,14,45,26.50
2018,07,22,14,46,26.60
2018,07,22,14,47,26.60
2018,07,22,14,48,26.60
2018,07,22,14,49,26.50
2018,07,22,14,50,26.50
2018,07,22,14,51,26.50
2018,07,22,14,52,26.50
2018,07,22,14,53,26.50
2018,07,22,14,54,26.40
2018,07,22,14,55,26.40
2018,07,22,14,56,26.50
2018,07,22,14,57,26.50
2018,07,22,14,58,26.60
2018,07,22,14,59,26.60
2018,07,22,15,00,26.60
2018,07,22,15,01,26.60
2018,07,22,15,02,26.60
2018,07,22,15,03,26.60
2018,07,22,15,04,26.70
2018,07,22,15,05,26.70
2018,07,22,15,06,26.80
2018,07,22,15,07,26.80
2018,07,22,15,08,26.90
2018,07,22,15,09,26.90
2018,07,22,15,10,26.80
2018,07,22,15,11,26.80
2018,07,22,15,12,26.70
2018,07,22,15,13,26.70
2018,07,22,15,14,26.70
2018,07,22,15,15,26.70
2018,07,22,15,16,26.80
2018,07,22,15,17,26.80
2018,07,22,15,18,26.80
2018,07,22,15,19,26.70
2018,07,22,15,20,26.70
2018,07,22,15,21,26.70
2018,07,22,15,22,26.80
2018,07,22,15,23,26.90
2018,07,22,15,24,26.90
2018,07,22,15,25,27.00
2018,07,22,15,26,27.10
2018,07,22,15,27,27.20
2018,07,22,15,28,27.20
2018,07,22,15,29,27.30
2018,07,22,15,30,27.40
2018,07,22,15,31,27.40
2018,07,22,15,32,27.30
2018,07,22,15,33,27.30
2018,07,22,15,34,27.20
2018,07,22,15,35,27.20
2018,07,22,15,36,27.30
2018,07,22,15,37,27.30
2018,07,22,15,38,27.40
2018,07,22,15,39,27.30
2018,07,22,15,40,27.30
2018,07,22,15,41,27.20
2018,07,22,15,42,27.20
2018,07,22,15,43,27.20
2018,07,22,15,44,27.20
2018,07,22,15,45,27.20
2018,07,22,15,46,27.30
2018,07,22,15,47,27.40
2018,07,22,15,48,27.50
2018,07,22,15,49,27.50
2018,07,22,15,50,27.50
2018,07,22,15,51,27.60
2018,07,22,15,52,27.50
2018,07,22,15,53,27.60
2018,07,22,15,54,27.60
2018,07,22,15,55,27.60
2018,07,22,15,56,27.50
2018,07,22,15,57,27.50
2018,07,22,15,58,27.50
2018,07,22,15,59,27.40
2018,07,22,16,00,27.30
2018,07,22,16,01,27.30
2018,07,22,16,02,27.20
2018,07,22,16,03,27.10
2018,07,22,16,04,27.00
2018,07,22,16,05,27.00
2018,07,22,16,06,26.90
2018,07,22,16,07,26.90
2018,07,22,16,08,27.00
2018,07,22,16,09,27.10
2018,07,22,16,10,27.20
2018,07,22,16,11,27.40
2018,07,22,16,12,27.50
2018,07,22,16,13,27.50
2018,07,22,16,14,27.50
2018,07,22,16,15,27.40
2018,07,22,16,16,27.40
2018,07,22,16,17,27.40
2018,07,22,16,18,27.40
2018,07,22,16,19,27.40
2018,07,22,16,20,27.40
2018,07,22,16,21,27.50
2018,07,22,16,22,27.60
2018,07,22,16,23,27.60
2018,07,22,16,24,27.60
2018,07,22,16,25,27.60
2018,07,22,16,26,27.60
2018,07,22,16,27,27.70
2018,07,22,16,28,27.80
2018,07,22,16,29,27.80
2018,07,22,16,30,27.80
2018,07,22,16,31,27.80
2018,07,22,16,32,27.80
2018,07,22,16,33,27.80
2018,07,22,16,34,27.90
2018,07,22,16,35,27.90
2018,07,22,16,36,27.90
2018,07,22,16,37,27.90
2018,07,22,16,38,28.00
2018,07,22,16,39,28.00
2018,07,22,16,40,27.90
2018,07,22,16,41,28.00
2018,07,22,16,42,28.00
2018,07,22,16,43,28.10
2018,07,22,16,44,28.20
2018,07,22,16,45,28.20
2018,07,22,16,46,28.30
2018,07,22,16,47,28.30
2018,07,22,16,48,28.20
2018,07,22,16,49,28.20
2018,07,22,16,50,28.20
2018,07,22,16,51,28.20
2018,07,22,16,52,28.10
2018,07,22,16,53,28.10
2018,07,22,16,54,28.10
2018,07,22,16,55,28.20
2018,07,22,16,56,28.20
2018,07,22,16,57,28.20
2018,07,22,16,58,28.20
2018,07,22,16,59,28.20
2018,07,22,17,00,28.20
2018,07,22,17,01,28.30
2018,07,22,17,02,28.30
2018,07,22,17,03,28.30
2018,07,22,17,04,28.20
2018,07,22,17,05,28.10
2018,07,22,17,06,28.00
2018,07,22,17,07,27.90
2018,07,22,17,08,27.90
2018,07,22,17,09,27.90
2018,07,22,17,10,28.00
2018,07,22,17,11,28.00
2018,07,22,17,12,28.00
2018,07,22,17,13,27.90
2018,07,22,17,14,27.90
2018,07,22,17,15,27.80
2018,07,22,17,16,27.80
2018,07,22,17,17,27.80
2018,07,22,17,18,27.90
2018,07,22,17,19,28.00